EW4907 Weather Reports


time (UTC)temp
C
wind
direction
speed
KPH
gust
KPH
rain 1hr
cm
rain 24hr
cm
rain mn
cm
humidity
%
barometer
mb
20260509164519 26 253 6.4 12.9 0.00 0.05 0.05 74 1011.4
20260509163014 26 183 4.8 16.1 0.00 0.05 0.05 78 1011.4
20260509161512 25 213 4.8 12.9 0.00 0.05 0.05 81 1011.4
20260509160012 25 285 3.2 9.7 0.00 0.05 0.05 85 1011.3
20260509154513 23 248 3.2 11.3 0.00 0.05 0.05 92 1011.5
20260509153105 22 179 4.8 12.9 0.00 0.05 0.05 96 1011.7
20260509151608 22 180 6.4 16.1 0.00 0.05 0.05 96 1011.8
20260509150056 22 165 6.4 11.3 0.00 0.05 0.05 96 1011.8
20260509144554 21 167 4.8 9.7 0.00 0.05 0.05 96 1011.3
20260509143054 21 210 4.8 11.3 0.00 0.05 0.05 96 1011.2
20260509141553 21 139 8.0 16.1 0.00 0.05 0.05 96 1011.0
20260509140052 21 139 3.2 8.0 0.00 0.05 0.05 96 1011.0
20260509134551 21 336 0.0 6.4 0.00 0.05 0.05 96 1011.2
20260509133050 21 329 0.0 4.8 0.00 0.05 0.05 96 1011.5
20260509131551 21 54 0.0 6.4 0.00 0.05 0.05 96 1011.5
20260509130059 21 316 3.2 8.0 0.00 0.05 0.05 96 1010.9
20260509124549 21 37 3.2 8.0 0.03 0.05 0.05 96 1010.9
20260509123051 21 322 4.8 9.7 0.03 0.05 0.05 96 1010.9
20260509121547 21 75 0.0 3.2 0.03 0.05 0.05 96 1010.9
20260509120055 21 18 1.6 6.4 0.03 0.05 0.05 96 1011.2
20260509114547 21 338 1.6 8.0 0.00 0.03 0.03 96 1011.3
20260509113046 21 58 3.2 8.0 0.00 0.03 0.03 96 1011.7
20260509111545 21 79 3.2 12.9 0.00 0.03 0.03 96 1011.8
20260509110044 21 53 6.4 12.9 0.00 0.03 0.03 96 1011.8
20260509104544 21 33 4.8 11.3 0.00 0.03 0.03 96 1012.0
20260509103042 21 22 1.6 6.4 0.00 0.03 0.03 96 1011.8
20260509101540 21 91 1.6 4.8 0.00 0.03 0.03 96 1011.3
20260509100038 21 94 0.0 4.8 0.03 0.03 0.03 96 1011.0
20260509094537 21 94 1.6 4.8 0.03 0.03 0.03 96 1010.6
20260509093037 21 97 1.6 4.8 0.03 0.03 0.03 96 1010.8
20260509091536 21 62 0.0 1.6 0.03 0.03 0.03 96 1010.6
20260509090035 21 63 0.0 3.2 0.00 0.00 0.00 95 1010.5
20260509084537 21 86 1.6 6.4 0.00 0.00 0.00 95 1010.8
20260509083038 21 53 1.6 6.4 0.00 0.00 0.00 95 1011.0
20260509081537 21 57 1.6 4.8 0.00 0.00 0.00 95 1010.9
20260509080039 21 127 1.6 3.2 0.00 0.00 0.00 95 1010.9
20260509074532 21 131 0.0 4.8 0.00 0.00 0.00 94 1010.8
20260509073031 21 127 3.2 8.0 0.00 0.00 0.00 94 1010.7
20260509071530 21 128 1.6 8.0 0.00 0.00 0.00 94 1010.9
20260509070030 21 193 1.6 6.4 0.00 0.00 0.00 94 1011.1
20260509064528 21 234 1.6 11.3 0.00 0.00 0.00 94 1011.1
20260509063026 21 153 4.8 14.5 0.00 0.00 0.00 93 1010.5
20260509061526 21 155 9.7 19.3 0.00 0.00 0.00 93 1010.7
20260509060027 21 283 9.7 20.9 0.00 0.00 0.00 93 1010.8
20260509054523 21 153 9.7 22.5 0.00 0.00 0.00 92 1010.6
20260509053030 21 186 9.7 17.7 0.00 0.00 0.00 92 1010.7
20260509051519 21 179 8.0 19.3 0.00 0.00 0.00 92 1010.6
20260509050019 21 153 6.4 12.9 0.00 0.00 0.00 92 1010.4
20260509044516 21 166 4.8 11.3 0.00 0.00 0.00 91 1010.3
20260509043015 21 154 3.2 11.3 0.00 0.00 0.00 91 1010.4
20260509041515 21 150 4.8 12.9 0.00 0.00 0.00 90 1010.5
20260509040013 22 192 3.2 9.7 0.00 0.00 0.00 89 1010.9
20260509034512 22 182 1.6 8.0 0.00 0.00 0.00 88 1010.9
20260509033012 22 134 3.2 6.4 0.00 0.00 0.00 88 1010.9
20260509031520 22 144 1.6 4.8 0.00 0.00 0.00 88 1010.7
20260509030014 22 132 6.4 9.7 0.00 0.00 0.00 88 1010.3
20260509024511 22 148 4.8 9.7 0.00 0.00 0.00 87 1010.3
20260509023016 22 157 3.2 8.0 0.00 0.00 0.00 87 1010.3
20260509021509 22 160 1.6 6.4 0.00 0.00 0.00 87 1010.2
20260509020011 22 136 3.2 9.7 0.00 0.00 0.00 86 1009.7
20260509014507 22 141 3.2 11.3 0.00 0.00 0.00 85 1009.4
20260509013007 23 128 6.4 11.3 0.00 0.00 0.00 84 1009.4
20260509011606 23 137 1.6 6.4 0.00 0.00 0.00 82 1009.5
20260509010005 23 147 4.8 12.9 0.00 0.00 0.00 81 1009.5
20260509004512 23 138 4.8 11.3 0.00 0.00 0.00 80 1009.3
20260509003006 23 165 3.2 11.3 0.00 0.00 0.00 79 1009.3
20260509001507 24 146 3.2 8.0 0.00 0.00 0.00 78 1009.4
20260509000002 24 191 4.8 14.5 0.00 0.00 0.00 78 1009.4
20260508234501 24 139 6.4 12.9 0.00 0.00 0.00 77 1009.4
20260508233104 24 169 6.4 16.1 0.00 0.00 0.00 76 1009.4
20260508231559 25 141 4.8 17.7 0.00 0.00 0.00 75 1009.4
20260508230106 25 142 3.2 11.3 0.00 0.00 0.00 76 1009.5
20260508224557 25 159 9.7 17.7 0.00 0.00 0.00 75 1009.6
20260508223055 25 136 8.0 14.5 0.00 0.00 0.00 74 1009.6
20260508221553 25 169 8.0 14.5 0.00 0.00 0.00 74 1009.6
20260508220053 25 131 4.8 14.5 0.00 0.00 0.00 73 1009.7
20260508214551 26 206 6.4 16.1 0.00 0.00 0.00 72 1009.8
20260508213050 25 184 8.0 14.5 0.00 0.00 0.00 72 1009.9
20260508211546 26 181 4.8 14.5 0.00 0.00 0.00 72 1010.1
20260508210045 25 143 9.7 17.7 0.00 0.00 0.00 73 1010.4
20260508204544 25 130 8.0 17.7 0.00 0.00 0.00 74 1010.6
20260508203042 25 133 4.8 12.9 0.00 0.00 0.00 74 1010.7
20260508201543 25 120 6.4 14.5 0.00 0.00 0.00 72 1010.9
20260508200041 25 129 4.8 14.5 0.00 0.00 0.00 71 1011.0
20260508194610 25 117 6.4 17.7 0.00 0.00 0.00 72 1011.0
20260508193035 25 131 4.8 16.1 0.00 0.00 0.00 71 1011.4
20260508191533 24 127 6.4 16.1 0.00 0.00 0.00 73 1011.6
20260508190030 24 115 6.4 12.9 0.00 0.00 0.00 74 1011.7
20260508184533 24 188 4.8 12.9 0.00 0.00 0.00 72 1011.9
20260508183027 24 134 6.4 14.5 0.00 0.00 0.00 71 1012.1
20260508181535 24 121 6.4 12.9 0.00 0.00 0.00 72 1012.4
20260508180025 23 130 6.4 16.1 0.00 0.00 0.00 73 1012.6
20260508174522 24 92 6.4 14.5 0.00 0.00 0.00 71 1012.7
20260508173034 25 190 3.2 8.0 0.00 0.00 0.00 71 1012.8
20260508171525 25 123 0.0 3.2 0.00 0.00 0.00 73 1013.0
20260508170017 24 264 1.6 6.4 0.00 0.00 0.00 73 1013.1